| time (UTC) | temp F | wind direction | speed MPH | gust MPH | rain 1hr in | rain 24hr in | rain mn in | humidity % | barometer mb |
| 20260903204855 | 77 | 23 | 1.0 | 5.0 | 0.00 | 0.00 | 0.00 | 63 | 1163.1 |
| 20260903203849 | 77 | 253 | 0.0 | 3.0 | 0.00 | 0.00 | 0.00 | 63 | 466.6 |
| 20260903202849 | 78 | 246 | 0.0 | 2.0 | 0.00 | 0.00 | 0.00 | 61 | 640.0 |
| 20260903201845 | 79 | 243 | 0.0 | 0.0 | 0.00 | 0.00 | 0.00 | 60 | 569.6 |
| 20260903200843 | 79 | 243 | 0.0 | 0.0 | 0.00 | 0.00 | 0.00 | 60 | 664.8 |
| 20260903195843 | 80 | 243 | 0.0 | 0.0 | 0.00 | 0.00 | 0.00 | 59 | 686.0 |
| 20260903194843 | 80 | 243 | 0.0 | 0.0 | 0.00 | 0.00 | 0.00 | 58 | 879.6 |
| 20260903193836 | 80 | 243 | 0.0 | 0.0 | 0.00 | 0.00 | 0.00 | 58 | 1043.4 |
| 20260903192838 | 80 | 243 | 0.0 | 0.0 | 0.00 | 0.00 | 0.00 | 58 | 1017.0 |
| 20260903191833 | 79 | 242 | 0.0 | 0.0 | 0.00 | 0.00 | 0.00 | 61 | 1304.2 |
| 20260903190834 | 79 | 242 | 0.0 | 0.0 | 0.00 | 0.00 | 0.00 | 61 | 1040.9 |
| 20260903185833 | 79 | 242 | 0.0 | 0.0 | 0.00 | 0.00 | 0.00 | 60 | 742.9 |
| 20260903184827 | 80 | 242 | 0.0 | 0.0 | 0.00 | 0.00 | 0.00 | 58 | 988.7 |
| 20260903183828 | 80 | 242 | 0.0 | 0.0 | 0.00 | 0.00 | 0.00 | 58 | 1214.0 |
| 20260903183258 | 80 | 242 | 0.0 | 1.0 | 0.00 | 0.00 | 0.00 | 58 | 1087.0 |
| 20260903181825 | 81 | 242 | 1.0 | 5.0 | 0.00 | 0.00 | 0.00 | 57 | 1054.0 |
| 20260903180825 | 83 | 250 | 0.0 | 0.0 | 0.00 | 0.00 | 0.00 | 55 | 1058.8 |
| 20260903175825 | 83 | 250 | 0.0 | 0.0 | 0.00 | 0.00 | 0.00 | 53 | 587.9 |
| 20260903174827 | 84 | 250 | 0.0 | 0.0 | 0.00 | 0.00 | 0.00 | 51 | 1286.3 |
| 20260903173825 | 84 | 250 | 0.0 | 0.0 | 0.00 | 0.00 | 0.00 | 51 | 644.3 |
| 20260903172825 | 84 | 250 | 0.0 | 0.0 | 0.00 | 0.00 | 0.00 | 51 | 520.4 |
| 20260903171824 | 84 | 250 | 0.0 | 0.0 | 0.00 | 0.00 | 0.00 | 52 | 523.9 |
| 20260903170823 | 85 | 250 | 0.0 | 0.0 | 0.00 | 0.00 | 0.00 | 54 | 925.9 |
| 20260903165823 | 85 | 250 | 0.0 | 0.0 | 0.00 | 0.00 | 0.00 | 53 | 1165.6 |
| 20260903164823 | 86 | 250 | 0.0 | 0.0 | 0.00 | 0.00 | 0.00 | 52 | 762.0 |
| 20260903163817 | 86 | 250 | 0.0 | 0.0 | 0.00 | 0.00 | 0.00 | 52 | 1126.5 |
| 20260903162817 | 85 | 250 | 0.0 | 3.0 | 0.00 | 0.00 | 0.00 | 51 | 511.1 |
| 20260903161815 | 86 | 250 | 0.0 | 1.0 | 0.00 | 0.00 | 0.00 | 51 | 696.7 |
| 20260903160815 | 85 | 250 | 0.0 | 2.0 | 0.00 | 0.00 | 0.00 | 49 | 1187.9 |
| 20260903155814 | 86 | 250 | 0.0 | 3.0 | 0.00 | 0.00 | 0.00 | 48 | 1019.1 |
| 20260903155254 | 86 | 250 | 0.0 | 4.0 | 0.00 | 0.00 | 0.00 | 46 | 726.1 |
| 20260903153817 | 87 | 247 | 0.0 | 4.0 | 0.00 | 0.00 | 0.00 | 44 | 1229.2 |
| 20260903153303 | 87 | 252 | 0.0 | 2.0 | 0.00 | 0.00 | 0.00 | 43 | 994.5 |
| 20260903151817 | 87 | 252 | 0.0 | 4.0 | 0.00 | 0.00 | 0.00 | 41 | 846.3 |
| 20260903150817 | 88 | 252 | 1.0 | 6.0 | 0.00 | 0.00 | 0.00 | 41 | 445.8 |
| 20260903150249 | 89 | 248 | 1.0 | 6.0 | 0.00 | 0.00 | 0.00 | 38 | 1211.8 |
| 20260903144813 | 89 | 247 | 1.0 | 9.0 | 0.00 | 0.00 | 0.00 | 37 | 628.6 |
| 20260903143813 | 89 | 205 | 1.0 | 5.0 | 0.00 | 0.00 | 0.00 | 37 | 669.9 |
| 20260903142812 | 89 | 222 | 2.0 | 8.0 | 0.00 | 0.00 | 0.00 | 40 | 1045.6 |
| 20260903141813 | 90 | 212 | 1.0 | 5.0 | 0.00 | 0.00 | 0.00 | 38 | 718.9 |
| 20260903140813 | 90 | 228 | 0.0 | 3.0 | 0.00 | 0.00 | 0.00 | 38 | 997.7 |
| 20260903140247 | 90 | 229 | 1.0 | 5.0 | 0.00 | 0.00 | 0.00 | 37 | 1256.0 |
| 20260903134814 | 90 | 242 | 1.0 | 3.0 | 0.00 | 0.00 | 0.00 | 38 | 581.8 |
| 20260903133812 | 90 | 234 | 0.0 | 0.0 | 0.00 | 0.00 | 0.00 | 36 | 1308.9 |
| 20260903132813 | 90 | 234 | 0.0 | 0.0 | 0.00 | 0.00 | 0.00 | 37 | 460.6 |
| 20260903132258 | 89 | 275 | 0.0 | 0.0 | 0.00 | 0.00 | 0.00 | 37 | 631.0 |
| 20260903130813 | 89 | 277 | 0.0 | 0.0 | 0.00 | 0.00 | 0.00 | 36 | 858.5 |
| 20260903125812 | 88 | 246 | 0.0 | 0.0 | 0.00 | 0.00 | 0.00 | 37 | 595.0 |
| 20260903124813 | 89 | 182 | 0.0 | 0.0 | 0.00 | 0.00 | 0.00 | 38 | 1163.4 |
| 20260903123812 | 89 | 182 | 0.0 | 0.0 | 0.00 | 0.00 | 0.00 | 37 | 1123.8 |
| 20260903122813 | 88 | 229 | 0.0 | 0.0 | 0.00 | 0.00 | 0.00 | 37 | 705.9 |
| 20260903121812 | 87 | 246 | 0.0 | 0.0 | 0.00 | 0.00 | 0.00 | 38 | 747.7 |
| 20260903120813 | 88 | 236 | 0.0 | 0.0 | 0.00 | 0.00 | 0.00 | 39 | 707.9 |
| 20260903115813 | 88 | 290 | 0.0 | 0.0 | 0.00 | 0.00 | 0.00 | 39 | 440.0 |
| 20260903114813 | 89 | 249 | 0.0 | 0.0 | 0.00 | 0.00 | 0.00 | 40 | 1055.2 |
| 20260903113813 | 88 | 146 | 0.0 | 0.0 | 0.00 | 0.00 | 0.00 | 38 | 919.2 |
| 20260903113738 | 88 | 199 | 0.0 | 0.0 | 0.00 | 0.00 | 0.00 | 38 | 984.3 |
| 20260903111813 | 88 | 205 | 0.0 | 0.0 | 0.00 | 0.00 | 0.00 | 37 | 749.3 |
| 20260903110813 | 87 | 355 | 0.0 | 0.0 | 0.00 | 0.00 | 0.00 | 39 | 653.5 |
| 20260903105813 | 88 | 355 | 0.0 | 0.0 | 0.00 | 0.00 | 0.00 | 39 | 568.8 |
| 20260903104813 | 88 | 355 | 0.0 | 0.0 | 0.00 | 0.00 | 0.00 | 39 | 1021.6 |
| 20260903103813 | 88 | 0 | 0.0 | 0.0 | 0.00 | 0.00 | 0.00 | 39 | 587.8 |
| 20260903102812 | 87 | 109 | 0.0 | 0.0 | 0.00 | 0.00 | 0.00 | 40 | 1062.0 |
| 20260903101813 | 86 | 44 | 0.0 | 0.0 | 0.00 | 0.00 | 0.00 | 40 | 768.1 |
| 20260903100813 | 87 | 0 | 0.0 | 0.0 | 0.00 | 0.00 | 0.00 | 41 | 1144.6 |
| 20260903095812 | 87 | 0 | 0.0 | 0.0 | 0.00 | 0.00 | 0.00 | 43 | 1212.8 |
| 20260903094813 | 86 | 36 | 0.0 | 0.0 | 0.00 | 0.00 | 0.00 | 42 | 631.8 |
| 20260903093813 | 86 | 0 | 0.0 | 0.0 | 0.00 | 0.00 | 0.00 | 45 | 1033.5 |
| 20260903092812 | 85 | 42 | 0.0 | 0.0 | 0.00 | 0.00 | 0.00 | 46 | 431.5 |
| 20260903091813 | 85 | 42 | 0.0 | 0.0 | 0.00 | 0.00 | 0.00 | 46 | 1000.5 |
| 20260903090812 | 84 | 95 | 0.0 | 0.0 | 0.00 | 0.00 | 0.00 | 47 | 915.8 |
| 20260903090256 | 84 | 0 | 0.0 | 0.0 | 0.00 | 0.00 | 0.00 | 48 | 1054.4 |
| 20260903084812 | 83 | 0 | 0.0 | 0.0 | 0.00 | 0.00 | 0.00 | 49 | 1138.0 |
| 20260903083815 | 83 | 53 | 0.0 | 0.0 | 0.00 | 0.00 | 0.00 | 51 | 1170.1 |
| 20260903082809 | 83 | 0 | 0.0 | 0.0 | 0.00 | 0.00 | 0.00 | 50 | 781.8 |
| 20260903081810 | 82 | 58 | 0.0 | 0.0 | 0.00 | 0.00 | 0.00 | 51 | 1262.7 |
| 20260903080809 | 82 | 0 | 0.0 | 0.0 | 0.00 | 0.00 | 0.00 | 51 | 559.5 |
| 20260903075808 | 81 | 32 | 0.0 | 0.0 | 0.00 | 0.00 | 0.00 | 52 | 783.4 |
| 20260903074806 | 80 | 25 | 0.0 | 0.0 | 0.00 | 0.00 | 0.00 | 55 | 641.7 |
| 20260903073804 | 79 | 23 | 0.0 | 0.0 | 0.00 | 0.00 | 0.00 | 56 | 1134.3 |
| 20260903072804 | 78 | 9 | 0.0 | 0.0 | 0.00 | 0.00 | 0.00 | 56 | 630.2 |
| 20260903071805 | 78 | 355 | 0.0 | 0.0 | 0.00 | 0.00 | 0.00 | 57 | 1104.9 |
| 20260903070804 | 76 | 5 | 0.0 | 0.0 | 0.00 | 0.00 | 0.00 | 60 | 1029.6 |
| 20260903065804 | 76 | 0 | 0.0 | 0.0 | 0.00 | 0.00 | 0.00 | 60 | 509.9 |
| 20260903064804 | 75 | 5 | 0.0 | 0.0 | 0.00 | 0.00 | 0.00 | 61 | 1200.1 |
| 20260903064254 | 75 | 27 | 0.0 | 0.0 | 0.00 | 0.00 | 0.00 | 62 | 667.6 |
| 20260903062804 | 74 | 36 | 2.0 | 10.0 | 0.00 | 0.00 | 0.00 | 63 | 651.8 |
| 20260903061804 | 73 | 19 | 4.0 | 10.0 | 0.00 | 0.00 | 0.00 | 64 | 895.6 |
| 20260903060804 | 73 | 15 | 3.0 | 9.0 | 0.00 | 0.00 | 0.00 | 65 | 579.9 |
| 20260903055807 | 72 | 5 | 2.0 | 9.0 | 0.00 | 0.00 | 0.00 | 66 | 479.5 |
| 20260903054804 | 71 | 11 | 2.0 | 9.0 | 0.00 | 0.00 | 0.00 | 67 | 988.5 |
| 20260903053804 | 71 | 14 | 2.0 | 8.0 | 0.00 | 0.00 | 0.00 | 68 | 513.0 |
| 20260903052805 | 70 | 15 | 3.0 | 10.0 | 0.00 | 0.00 | 0.00 | 68 | 945.6 |
| 20260903052242 | 70 | 16 | 2.0 | 7.0 | 0.00 | 0.00 | 0.00 | 68 | 740.3 |
| 20260903050804 | 70 | 29 | 1.0 | 6.0 | 0.00 | 0.00 | 0.00 | 68 | 563.1 |
| 20260903045804 | 70 | 36 | 2.0 | 6.0 | 0.00 | 0.00 | 0.00 | 68 | 750.2 |
| 20260903044804 | 70 | 345 | 4.0 | 10.0 | 0.00 | 0.00 | 0.00 | 68 | 707.9 |
| 20260903043805 | 70 | 0 | 3.0 | 9.0 | 0.00 | 0.00 | 0.00 | 68 | 1039.9 |
| 20260903042806 | 70 | 343 | 4.0 | 11.0 | 0.00 | 0.00 | 0.00 | 68 | 619.2 |
| 20260903041804 | 70 | 0 | 4.0 | 10.0 | 0.00 | 0.00 | 0.00 | 68 | 854.9 |
| 20260903040805 | 70 | 9 | 5.0 | 11.0 | 0.00 | 0.00 | 0.00 | 68 | 451.0 |
| 20260903035805 | 70 | 350 | 4.0 | 11.0 | 0.00 | 0.00 | 0.00 | 69 | 1038.0 |
| 20260903034804 | 69 | 40 | 3.0 | 11.0 | 0.00 | 0.00 | 0.00 | 69 | 743.8 |
| 20260903034251 | 69 | 11 | 5.0 | 11.0 | 0.00 | 0.00 | 0.00 | 69 | 497.7 |
| 20260903033252 | 69 | 355 | 3.0 | 10.0 | 0.00 | 0.00 | 0.00 | 70 | 1027.2 |
| 20260903031806 | 70 | 9 | 3.0 | 9.0 | 0.00 | 0.00 | 0.00 | 70 | 868.1 |
| 20260903031248 | 70 | 26 | 3.0 | 9.0 | 0.00 | 0.00 | 0.00 | 69 | 1016.0 |
| 20260903025804 | 70 | 344 | 4.0 | 9.0 | 0.00 | 0.00 | 0.00 | 69 | 473.8 |
| 20260903024804 | 70 | 17 | 2.0 | 8.0 | 0.00 | 0.00 | 0.00 | 69 | 437.3 |
| 20260903023805 | 70 | 0 | 1.0 | 9.0 | 0.00 | 0.00 | 0.00 | 69 | 602.6 |
| 20260903022804 | 70 | 0 | 2.0 | 9.0 | 0.00 | 0.00 | 0.00 | 69 | 1063.7 |
| 20260903021804 | 70 | 355 | 2.0 | 8.0 | 0.00 | 0.00 | 0.00 | 69 | 897.0 |
| 20260903020805 | 70 | 26 | 3.0 | 9.0 | 0.00 | 0.00 | 0.00 | 68 | 1031.7 |
| 20260903015805 | 71 | 20 | 2.0 | 8.0 | 0.00 | 0.00 | 0.00 | 68 | 503.7 |
| 20260903014804 | 71 | 5 | 3.0 | 10.0 | 0.00 | 0.00 | 0.00 | 68 | 810.7 |
| 20260903013805 | 71 | 11 | 3.0 | 11.0 | 0.00 | 0.00 | 0.00 | 68 | 431.3 |
| 20260903012804 | 71 | 17 | 3.0 | 9.0 | 0.00 | 0.00 | 0.00 | 67 | 597.8 |
| 20260903011807 | 71 | 9 | 3.0 | 10.0 | 0.00 | 0.00 | 0.00 | 67 | 531.1 |
| 20260903010805 | 72 | 342 | 5.0 | 11.0 | 0.00 | 0.00 | 0.00 | 66 | 599.3 |
| 20260903005804 | 72 | 342 | 5.0 | 11.0 | 0.00 | 0.00 | 0.00 | 66 | 1247.6 |
| 20260903004804 | 72 | 0 | 5.0 | 11.0 | 0.00 | 0.00 | 0.00 | 66 | 891.5 |
| 20260903003805 | 72 | 0 | 4.0 | 10.0 | 0.00 | 0.00 | 0.00 | 65 | 1028.7 |
| 20260903002804 | 72 | 15 | 5.0 | 13.0 | 0.00 | 0.00 | 0.00 | 65 | 522.6 |
| 20260903001804 | 72 | 350 | 5.0 | 11.0 | 0.00 | 0.00 | 0.00 | 65 | 682.4 |
| 20260903000805 | 73 | 5 | 5.0 | 12.0 | 0.00 | 0.00 | 0.00 | 65 | 811.4 |
| 20260903000255 | 73 | 0 | 8.0 | 15.0 | 0.00 | 0.00 | 0.00 | 65 | 1055.7 |
| 20260902235245 | 73 | 338 | 6.0 | 12.0 | 0.00 | 0.00 | 0.00 | 66 | 1004.5 |
| 20260902233805 | 73 | 18 | 7.0 | 15.0 | 0.00 | 0.00 | 0.00 | 64 | 1090.6 |
| 20260902233243 | 73 | 0 | 9.0 | 16.0 | 0.00 | 0.00 | 0.00 | 65 | 413.4 |
| 20260902231805 | 73 | 349 | 9.0 | 18.0 | 0.00 | 0.00 | 0.00 | 66 | 953.5 |
| 20260902230804 | 74 | 313 | 6.0 | 15.0 | 0.00 | 0.00 | 0.00 | 64 | 490.8 |
| 20260902225804 | 74 | 0 | 4.0 | 10.0 | 0.00 | 0.00 | 0.00 | 61 | 528.3 |
| 20260902225245 | 74 | 0 | 5.0 | 12.0 | 0.00 | 0.00 | 0.00 | 59 | 530.8 |
| 20260902223806 | 75 | 345 | 5.0 | 15.0 | 0.00 | 0.00 | 0.00 | 57 | 560.2 |
| 20260902223243 | 76 | 344 | 5.0 | 10.0 | 0.00 | 0.00 | 0.00 | 58 | 799.9 |
| 20260902221804 | 77 | 335 | 2.0 | 10.0 | 0.00 | 0.00 | 0.00 | 60 | 516.7 |
| 20260902220804 | 77 | 11 | 1.0 | 8.0 | 0.00 | 0.00 | 0.00 | 59 | 865.5 |
| 20260902215757 | 77 | 22 | 3.0 | 9.0 | 0.00 | 0.00 | 0.00 | 60 | 566.4 |
| 20260902214757 | 77 | 24 | 4.0 | 11.0 | 0.00 | 0.00 | 0.00 | 60 | 508.0 |
| 20260902213758 | 76 | 332 | 4.0 | 11.0 | 0.00 | 0.00 | 0.00 | 62 | 619.6 |
| 20260902212757 | 76 | 346 | 4.0 | 9.0 | 0.00 | 0.00 | 0.00 | 63 | 1114.1 |
| 20260902211757 | 76 | 355 | 4.0 | 10.0 | 0.00 | 0.00 | 0.00 | 64 | 526.0 |
| 20260902211719 | 76 | 26 | 3.0 | 6.0 | 0.00 | 0.00 | 0.00 | 65 | 727.5 |
| 20260902205753 | 76 | 0 | 1.0 | 5.0 | 0.00 | 0.00 | 0.00 | 65 | 503.0 |